[[{"header":{"parameterUnit":"m.s-1","parameterCategory":2,"la1":30.2991,"la2":30.254,"lo1":-89.0895,"lo2":-89.0444,"dy":0.0017,"dx":0.0017,"nx":28,"ny":28,"refTime":"2023-11-11T03:00:00:Z","depth":"0","parameterNumber":2,"parameterNumberName":"U-component_of_CURRENTS"},"data":[0,0,0,0,0,0,0,0,0,0,0,0,0,0,0,0,0,0,0,0,0,0,0,0,0,0,0,0,0,0,0,0,0,0,0,0,0,0,0,0,0,0,0,0,0,0,0,0,0,0,0,0,0,0,0,0,0,0,0.2167,0.2168,0,0.2182,0.2182,0.2182,0.217,0.217,0.2169,0.2169,0.2134,0.2134,0.2133,0,0,0,0,0,0,0,0,0,0,0,0,0,0.211,0.2111,0.2167,0.2168,0.2168,0.2182,0.2182,0.2182,0.217,0.217,0.2169,0.2169,0.2135,0.2134,0.2133,0,0,0,0,0,0,0,0,0,0,0,0,0,0.2128,0.2111,0.2167,0.2166,0.2166,0.2182,0.2182,0.2182,0.217,0.217,0.2169,0.2169,0.2135,0.2134,0.2133,0.2134,0,0,0.213,0.2129,0,0,0,0,0,0,0,0,0.2127,0.213,0.2166,0.2166,0.2167,0.2176,0.2149,0.2164,0.217,0.2166,0.2169,0.2169,0.2146,0.2144,0.2144,0.2132,0.2131,0.213,0.2129,0.2128,0.2128,0,0,0,0,0,0,0,0.2126,0.2129,0.217,0.2166,0.2167,0.2158,0.216,0.2152,0.2155,0.2166,0.2166,0.2172,0.2145,0.2145,0.2143,0.213,0.213,0.2129,0.2128,0.2128,0.2142,0.2143,0,0,0,0,0,0,0.2131,0.2128,0.217,0.2171,0.2149,0.216,0.2162,0.2171,0.2156,0.2154,0.2172,0.2171,0.2147,0.2144,0.2142,0.2163,0.2128,0.2127,0.2127,0.2141,0.2143,0.2144,0,0,0,0,0,0,0.213,0.2135,0.2169,0.2152,0.2156,0.2162,0.2172,0.2172,0.2176,0.2162,0.2158,0.2177,0.2147,0.2143,0.2144,0.2161,0.2127,0.2126,0.214,0.2142,0.2143,0.2192,0,0,0,0,0,0,0.2129,0.2135,0.2141,0.2152,0.2157,0.2188,0.2172,0.2172,0.2181,0.218,0.2165,0.2161,0.2146,0.2146,0.2143,0.2159,0.2125,0.2139,0.2141,0.2143,0.2189,0.2195,0.22,0,0,0,0,0,0.2126,0.2139,0.2141,0.2146,0.2167,0.2189,0.2191,0.2191,0.2182,0.2191,0.2181,0.2162,0.2156,0.2146,0.2142,0.2158,0.2138,0.214,0.2143,0.2186,0.2193,0.22,0,0,0,0,0,0,0.2117,0.214,0.2142,0.2161,0.2178,0.2188,0.2198,0.2196,0.2195,0.2192,0.2172,0.2168,0.2175,0.2162,0.2151,0.2169,0.2145,0.2147,0.218,0.2186,0.2192,0.22,0.2124,0,0,0,0,0,0.2119,0.2134,0.2155,0.2171,0.2182,0.219,0.2198,0.22,0.2203,0.2203,0.2192,0.2184,0.2182,0.218,0.2174,0.2183,0.2199,0.2192,0.2197,0.2202,0.2208,0.2246,0.2255,0.2151,0.2151,0.2151,0,0,0.2118,0.2135,0.2141,0.217,0.2182,0.2201,0.2194,0.2213,0.2224,0.2198,0.2207,0.2199,0.2188,0.2199,0.2201,0.219,0.2246,0.2205,0.2209,0.2212,0.2249,0.2259,0.2268,0.2153,0.2153,0.2152,0,0,0.2126,0.2143,0.2158,0.2175,0.2202,0.2212,0.222,0.2236,0.224,0.2252,0.2237,0.2244,0.2236,0.2238,0.2235,0.2268,0.2271,0.2265,0.2301,0.2338,0.2347,0.2355,0.2414,0.2426,0.227,0.227,0.227,0,0.2121,0.2146,0.2166,0.2187,0.2203,0.2219,0.2239,0.225,0.2261,0.2269,0.2261,0.227,0.2257,0.2278,0.229,0.228,0.231,0.2275,0.2346,0.2354,0.2361,0.2419,0.2433,0.2273,0.2273,0.2272,0.2272,0,0.2142,0.216,0.2174,0.2205,0.2228,0.2249,0.2273,0.229,0.2297,0.2306,0.2329,0.2325,0.2333,0.2332,0.2319,0.2365,0.2374,0.2347,0.233,0.2374,0.2433,0.2446,0.2277,0.2276,0.2275,0.2274,0,0,0.2119,0.2177,0.2176,0.2196,0.2239,0.2258,0.229,0.2323,0.2346,0.2358,0.2393,0.2393,0.2398,0.2397,0.239,0.242,0.2502,0.241,0.2411,0.2471,0.261,0.2614,0.2629,0.2489,0.2491,0.2493,0.264,0,0.2124,0.2163,0.2193,0.2227,0.2251,0.2284,0.2314,0.2345,0.2374,0.2412,0.2424,0.2452,0.2422,0.244,0.2464,0.2491,0.2535,0.2466,0.2555,0.2559,0.2557,0.2643,0.255,0.2672,0.2653,0.2655,0.2656,0,0.2121,0.2152,0.2189,0.2244,0.2258,0.2281,0.234,0.2373,0.2431,0.246,0.2497,0.251,0.2562,0.2528,0.261,0.2571,0.2598,0.2617,0.2622,0.2615,0.2586,0.2619,0.2697,0.2663,0.2677,0.2675,0.2673,0,0.2086,0.214,0.2172,0.2189,0.2257,0.2279,0.2318,0.2379,0.2417,0.2502,0.2539,0.2596,0.2639,0.2677,0.2713,0.2674,0.2811,0.276,0.2794,0.2795,0.2728,0.272,0.2781,0.2825,0.2825,0.2825,0.2824,0,0.2069,0.2085,0.2156,0.2169,0.2207,0.2266,0.2314,0.2366,0.245,0.2495,0.2559,0.2612,0.2678,0.2748,0.2766,0.2841,0.286,0.283,0.2839,0.2745,0.2737,0.2711,0.2679,0.283,0.2829,0.2828,0.2827,0,0.2012,0.2059,0.2096,0.2169,0.2188,0.2216,0.2301,0.2337,0.2431,0.25,0.2533,0.2656,0.2765,0.2831,0.2927,0.2919,0.2918,0.2996,0.2898,0.2892,0.2868,0.2841,0.2809,0.2714,0.3066,0.3067,0.3068,0,0.1984,0.2001,0.2076,0.2092,0.212,0.2172,0.2201,0.231,0.2361,0.2508,0.2539,0.2687,0.2763,0.2941,0.2998,0.3084,0.2972,0.3027,0.2922,0.2887,0.2864,0.2739,0.2649,0.2867,0.2867,0.2866,0.2865,0,0.1926,0.1957,0.1987,0.2027,0.2057,0.2093,0.2154,0.2198,0.2324,0.2395,0.2507,0.259,0.2792,0.2871,0.3015,0.3036,0.2899,0.3016,0.2995,0.274,0.2591,0.2496,0.2771,0.2859,0.286,0.286,0.2861,0.2861,0.1868,0.1874,0.1916,0.1946,0.1978,0.2,0.2006,0.2087,0.2159,0.2259,0.2407,0.2514,0.2711,0.2916,0.2926,0.2946,0.2887,0.2868,0.2854,0.2742,0.2593,0.2876,0.2956,0.2957,0.2958,0.2959,0.2959,0,0.1781,0.1802,0.1828,0.1855,0.1854,0.1902,0.1952,0.1955,0.1997,0.216,0.2254,0.2472,0.2594,0.2742,0.2877,0.2807,0.2633,0.2738,0.253,0.2457,0.2743,0.2676,0.2679,0.2679,0.268,0.268,0.268,0.268,0.1733,0.1725,0.1748,0.1719,0.1736,0.1705,0.1713,0.1739,0.1843,0.198,0.2127,0.229,0.26,0.2822,0.2838,0.2748,0.2514,0.242,0.2391,0.2609,0.2618,0.2627,0.2558,0.2537,0.2536,0.1985,0.1982,0.1979]},{"header":{"parameterUnit":"m.s-1","parameterCategory":2,"la1":30.2991,"la2":30.254,"lo1":-89.0895,"lo2":-89.0444,"dy":0.0017,"dx":0.0017,"nx":28,"ny":28,"refTime":"2023-11-11T03:00:00:Z","depth":"0","parameterNumber":3,"parameterNumberName":"V-component_of_CURRENTS"},"data":[0,0,0,0,0,0,0,0,0,0,0,0,0,0,0,0,0,0,0,0,0,0,0,0,0,0,0,0,0,0,0,0,0,0,0,0,0,0,0,0,0,0,0,0,0,0,0,0,0,0,0,0,0,0,0,0,0,0,-0.0473,-0.0474,0,-0.0516,-0.0516,-0.0517,-0.0556,-0.0556,-0.0556,-0.0557,-0.0678,-0.0681,-0.0684,0,0,0,0,0,0,0,0,0,0,0,0,0,-0.0421,-0.0422,-0.0473,-0.0474,-0.0474,-0.0516,-0.0516,-0.0517,-0.0556,-0.0556,-0.0557,-0.0557,-0.0677,-0.068,-0.0684,0,0,0,0,0,0,0,0,0,0,0,0,0,-0.0453,-0.0422,-0.0473,-0.0497,-0.0499,-0.0515,-0.0516,-0.0517,-0.0556,-0.0556,-0.0557,-0.0557,-0.0676,-0.068,-0.0684,-0.0704,0,0,-0.0698,-0.07,0,0,0,0,0,0,0,0,-0.0452,-0.0456,-0.0493,-0.0495,-0.0498,-0.0529,-0.0542,-0.0583,-0.0556,-0.0537,-0.0557,-0.0557,-0.0634,-0.0641,-0.0651,-0.071,-0.0715,-0.0698,-0.0701,-0.0703,-0.0704,0,0,0,0,0,0,0,-0.0449,-0.0454,-0.0493,-0.0493,-0.0496,-0.0503,-0.0508,-0.055,-0.0586,-0.0538,-0.0541,-0.0542,-0.0636,-0.0646,-0.0654,-0.0717,-0.0698,-0.0702,-0.0705,-0.0707,-0.0799,-0.0799,0,0,0,0,0,0,-0.0439,-0.0452,-0.0491,-0.0494,-0.0472,-0.0503,-0.051,-0.052,-0.0584,-0.0592,-0.0541,-0.0543,-0.0638,-0.0649,-0.0659,-0.0675,-0.0703,-0.0707,-0.071,-0.0799,-0.0799,-0.0799,0,0,0,0,0,0,-0.0438,-0.0443,-0.0489,-0.0471,-0.0477,-0.0504,-0.0516,-0.0521,-0.0528,-0.0584,-0.0595,-0.0542,-0.0639,-0.0652,-0.0692,-0.0681,-0.0709,-0.0713,-0.08,-0.0799,-0.0799,-0.0716,0,0,0,0,0,0,-0.0437,-0.0443,-0.0444,-0.0471,-0.0478,-0.0492,-0.0515,-0.0521,-0.0527,-0.0531,-0.0589,-0.0601,-0.064,-0.0685,-0.0696,-0.0687,-0.0717,-0.08,-0.0799,-0.0799,-0.0719,-0.0713,-0.0707,0,0,0,0,0,-0.0435,-0.043,-0.0444,-0.0448,-0.048,-0.0492,-0.0496,-0.0517,-0.0527,-0.0526,-0.0568,-0.0599,-0.069,-0.0688,-0.0702,-0.0694,-0.08,-0.08,-0.0799,-0.0721,-0.0714,-0.0707,0,0,0,0,0,0,-0.0403,-0.0434,-0.045,-0.0454,-0.047,-0.0497,-0.0495,-0.0511,-0.0541,-0.0546,-0.06,-0.0615,-0.0644,-0.0682,-0.0679,-0.072,-0.0749,-0.0751,-0.0685,-0.0679,-0.0673,-0.0649,-0.0721,0,0,0,0,0,-0.0397,-0.0403,-0.0433,-0.0433,-0.0441,-0.0468,-0.0473,-0.0489,-0.0518,-0.0531,-0.0572,-0.0616,-0.0653,-0.0675,-0.0716,-0.074,-0.0764,-0.0744,-0.0738,-0.0733,-0.0723,-0.0747,-0.0742,-0.0797,-0.0797,-0.0797,0,0,-0.0381,-0.0399,-0.0402,-0.0427,-0.0442,-0.0443,-0.0472,-0.0477,-0.0477,-0.0541,-0.0557,-0.06,-0.0655,-0.068,-0.0697,-0.0711,-0.0729,-0.0732,-0.0727,-0.072,-0.0746,-0.074,-0.0735,-0.0797,-0.0797,-0.0797,0,0,-0.0348,-0.0373,-0.0367,-0.0379,-0.0398,-0.0417,-0.0415,-0.0444,-0.0457,-0.0481,-0.0522,-0.0552,-0.0616,-0.0643,-0.0668,-0.0656,-0.0698,-0.0673,-0.0626,-0.0649,-0.0644,-0.064,-0.0655,-0.0654,-0.067,-0.067,-0.067,0,-0.0323,-0.0329,-0.0363,-0.0359,-0.036,-0.0401,-0.0389,-0.0408,-0.0444,-0.0452,-0.0478,-0.0549,-0.0594,-0.0615,-0.061,-0.064,-0.0661,-0.0645,-0.0639,-0.0636,-0.0633,-0.065,-0.0649,-0.0666,-0.0666,-0.0667,-0.0667,0,-0.0289,-0.0292,-0.0286,-0.0299,-0.0306,-0.0301,-0.0332,-0.0342,-0.0368,-0.039,-0.0419,-0.0479,-0.0519,-0.0537,-0.0572,-0.0574,-0.0597,-0.0627,-0.065,-0.0622,-0.0642,-0.0643,-0.066,-0.0661,-0.0663,-0.0664,0,0,-0.0225,-0.0257,-0.025,-0.0249,-0.0274,-0.0272,-0.0274,-0.0287,-0.0279,-0.0329,-0.0325,-0.0387,-0.0419,-0.0448,-0.0494,-0.0514,-0.0512,-0.0557,-0.056,-0.056,-0.0557,-0.0558,-0.056,-0.0543,-0.0542,-0.0542,-0.0575,0,-0.0182,-0.0166,-0.0192,-0.0167,-0.0162,-0.0197,-0.0193,-0.021,-0.0237,-0.0246,-0.0306,-0.0327,-0.0386,-0.04,-0.0429,-0.0494,-0.0511,-0.05,-0.0595,-0.0597,-0.0592,-0.0559,-0.0543,-0.057,-0.0576,-0.0576,-0.0576,0,-0.0133,-0.0131,-0.0106,-0.0109,-0.0107,-0.0095,-0.0092,-0.0094,-0.0124,-0.0146,-0.0181,-0.0233,-0.0272,-0.0325,-0.0413,-0.0405,-0.0468,-0.052,-0.0523,-0.0553,-0.0599,-0.0603,-0.0571,-0.0725,-0.0577,-0.0577,-0.0577,0,-0.007,-0.0064,-0.0042,-0.0043,-0.0055,-0.0039,-0.004,-0.0057,-0.0046,-0.0076,-0.0072,-0.0145,-0.0169,-0.0262,-0.0373,-0.0394,-0.0466,-0.0512,-0.0571,-0.0572,-0.059,-0.0593,-0.0707,-0.0562,-0.0562,-0.0562,-0.0562,0,-0.0016,0.0007,-0.0008,0.0007,0.0048,0.0021,0.0064,0.005,0.0048,0.0076,-0.0011,0.0,-0.0154,-0.0221,-0.0336,-0.0444,-0.0439,-0.0549,-0.0576,-0.0561,-0.056,-0.0722,-0.0817,-0.0563,-0.0563,-0.0563,-0.0563,0,0.0046,0.0032,0.0063,0.0067,0.0076,0.0109,0.0138,0.0166,0.0153,0.019,0.0186,0.0115,0.0031,-0.012,-0.0264,-0.0381,-0.0582,-0.0536,-0.0502,-0.0524,-0.073,-0.082,-0.0971,-0.1044,-0.0609,-0.0609,-0.0609,0,0.0076,0.0095,0.0118,0.0147,0.0154,0.0196,0.0225,0.0222,0.026,0.027,0.0301,0.0231,0.0208,-0.0004,-0.0224,-0.0417,-0.0575,-0.0541,-0.058,-0.0726,-0.0847,-0.0923,-0.098,-0.0574,-0.0573,-0.0573,-0.0573,0,0.0138,0.0143,0.0166,0.0226,0.0268,0.0315,0.0364,0.0412,0.0418,0.0456,0.0505,0.0492,0.0289,0.0106,-0.0175,-0.0327,-0.0658,-0.0544,-0.0709,-0.0832,-0.091,-0.0998,-0.0569,-0.0572,-0.0572,-0.0572,-0.0572,-0.0572,0.0191,0.0219,0.0252,0.0312,0.0362,0.0437,0.0494,0.0553,0.0633,0.0702,0.0675,0.069,0.0395,0.0022,-0.0209,-0.0633,-0.0656,-0.0764,-0.0861,-0.0924,-0.0999,-0.0558,-0.0585,-0.0585,-0.0586,-0.0586,-0.0586,0,0.026,0.0282,0.0338,0.0408,0.0477,0.0489,0.0585,0.0648,0.0759,0.0828,0.0875,0.0755,0.0391,-0.0004,-0.056,-0.088,-0.102,-0.1072,-0.119,-0.1233,-0.0847,-0.0849,-0.0917,-0.0917,-0.0917,-0.0917,-0.0917,-0.0916,0.0296,0.0356,0.0376,0.0498,0.055,0.0649,0.071,0.0804,0.0878,0.0975,0.0997,0.0977,0.0683,-0.0324,-0.106,-0.1239,-0.1474,-0.1527,-0.1661,-0.1414,-0.1393,-0.1373,-0.1398,-0.158,-0.1581,-0.2,-0.2005,-0.2008]}],[{"header":{"parameterUnit":"m.s-1","parameterCategory":2,"la1":30.2991,"la2":30.254,"lo1":-89.0895,"lo2":-89.0444,"dy":0.0017,"dx":0.0017,"nx":28,"ny":28,"refTime":"2023-11-11T03:00:00:Z","depth":"2","parameterNumber":2,"parameterNumberName":"U-component_of_CURRENTS"},"data":[0,0,0,0,0,0,0,0,0,0,0,0,0,0,0,0,0,0,0,0,0,0,0,0,0,0,0,0,0,0,0,0,0,0,0,0,0,0,0,0,0,0,0,0,0,0,0,0,0,0,0,0,0,0,0,0,0,0,0.2136,0.2136,0,0.2151,0.2151,0.2152,0.2152,0.2152,0.2152,0.2152,0.2142,0.2142,0.2142,0,0,0,0,0,0,0,0,0,0,0,0,0,0.2081,0.2082,0.2135,0.2136,0.2136,0.2151,0.2151,0.2152,0.2152,0.2152,0.2152,0.2152,0.2142,0.2142,0.2142,0,0,0,0,0,0,0,0,0,0,0,0,0,0.2101,0.2082,0.2135,0.2139,0.2139,0.2151,0.2151,0.2152,0.2152,0.2152,0.2152,0.2152,0.2142,0.2142,0.2142,0.2144,0,0,0.2141,0.2141,0,0,0,0,0,0,0,0,0.21,0.2103,0.2138,0.2139,0.2139,0.215,0.2129,0.2148,0.2152,0.2146,0.2152,0.2152,0.2143,0.2143,0.2145,0.2143,0.2143,0.2141,0.2141,0.2141,0.2141,0,0,0,0,0,0,0,0.2098,0.2102,0.2141,0.2138,0.2139,0.2131,0.2134,0.2132,0.2144,0.2147,0.2147,0.215,0.2143,0.2146,0.2145,0.2143,0.2141,0.2141,0.2141,0.214,0.2178,0.2179,0,0,0,0,0,0,0.21,0.2101,0.214,0.2141,0.212,0.2132,0.2135,0.2146,0.2145,0.2145,0.215,0.215,0.2146,0.2145,0.2145,0.2177,0.2141,0.214,0.214,0.2177,0.2178,0.2179,0,0,0,0,0,0,0.2099,0.2104,0.214,0.2121,0.2126,0.2134,0.2146,0.2147,0.2157,0.2148,0.2147,0.2161,0.2146,0.2145,0.2161,0.2175,0.214,0.214,0.2175,0.2177,0.2179,0.2222,0,0,0,0,0,0,0.2097,0.2103,0.2113,0.2122,0.2127,0.216,0.2146,0.2147,0.2159,0.2159,0.2156,0.2155,0.2146,0.2162,0.2161,0.2174,0.214,0.2174,0.2176,0.2178,0.2219,0.2225,0.223,0,0,0,0,0,0.2095,0.2112,0.2114,0.2118,0.214,0.2161,0.2163,0.2166,0.216,0.2173,0.2174,0.2155,0.2174,0.2163,0.2161,0.2175,0.2173,0.2175,0.2178,0.2216,0.2223,0.2229,0,0,0,0,0,0,0.2092,0.2114,0.2116,0.2138,0.2153,0.2161,0.2173,0.2173,0.2183,0.2183,0.2171,0.217,0.2187,0.218,0.2167,0.2193,0.217,0.2173,0.22,0.2206,0.2212,0.2219,0.214,0,0,0,0,0,0.2097,0.2116,0.2132,0.215,0.216,0.2167,0.2175,0.2179,0.2188,0.2193,0.219,0.219,0.2196,0.2201,0.2201,0.2218,0.2233,0.2226,0.2232,0.2236,0.2243,0.2278,0.2288,0.2188,0.2187,0.2187,0,0,0.2096,0.2114,0.2122,0.2151,0.2161,0.2179,0.2172,0.2191,0.2205,0.2189,0.2208,0.2207,0.2205,0.2224,0.223,0.222,0.2278,0.2239,0.2243,0.2247,0.2282,0.2292,0.23,0.2189,0.2189,0.2189,0,0,0.2108,0.2127,0.2145,0.2159,0.2183,0.2194,0.2202,0.2217,0.2226,0.2246,0.2238,0.2253,0.2257,0.2264,0.2265,0.2303,0.2303,0.23,0.2334,0.2369,0.2378,0.2385,0.2439,0.2451,0.2304,0.2305,0.2305,0,0.2103,0.2132,0.2153,0.2172,0.2186,0.2202,0.2221,0.2235,0.2253,0.2265,0.2259,0.2283,0.2278,0.2306,0.232,0.2314,0.2341,0.2308,0.2377,0.2384,0.2391,0.2444,0.2457,0.2307,0.2307,0.2306,0.2306,0,0.2126,0.2147,0.216,0.2193,0.2213,0.2234,0.2257,0.2278,0.229,0.2302,0.2334,0.2338,0.2356,0.2355,0.2348,0.2395,0.2402,0.2377,0.2359,0.2404,0.2457,0.247,0.231,0.231,0.2309,0.2308,0,0,0.2103,0.2165,0.2163,0.2183,0.2225,0.2242,0.2278,0.2315,0.2342,0.236,0.24,0.241,0.2418,0.2422,0.2419,0.2448,0.2524,0.2438,0.2439,0.2492,0.2625,0.2579,0.2588,0.2512,0.2514,0.2516,0.265,0,0.2108,0.215,0.2182,0.2215,0.2238,0.2271,0.2304,0.2338,0.2373,0.2418,0.2435,0.2471,0.2443,0.2464,0.2487,0.2515,0.2555,0.2491,0.2574,0.2577,0.253,0.26,0.2394,0.2491,0.2662,0.2664,0.2666,0,0.2103,0.2138,0.2176,0.2233,0.2246,0.2271,0.2333,0.2369,0.2435,0.2468,0.2511,0.253,0.2584,0.2551,0.2629,0.2592,0.2616,0.2633,0.2638,0.2586,0.2553,0.247,0.2507,0.2686,0.2685,0.2683,0.2682,0,0.2065,0.2123,0.2158,0.2174,0.2245,0.227,0.2313,0.2378,0.2419,0.2513,0.2552,0.2614,0.2659,0.2693,0.2721,0.269,0.2808,0.2768,0.2754,0.2752,0.2588,0.2567,0.2829,0.2828,0.2828,0.2828,0.2827,0,0.2045,0.2064,0.2144,0.2157,0.2198,0.2258,0.231,0.2366,0.2455,0.2504,0.2575,0.2624,0.2696,0.2757,0.277,0.281,0.2853,0.2783,0.2786,0.2599,0.2579,0.2743,0.2731,0.2833,0.2832,0.2831,0.283,0,0.1983,0.2037,0.2076,0.2156,0.2179,0.2208,0.2298,0.2338,0.2436,0.2509,0.2544,0.2665,0.2752,0.2811,0.2896,0.2876,0.2916,0.2915,0.2704,0.2679,0.2831,0.282,0.2931,0.293,0.293,0.293,0.2929,0,0.1955,0.1973,0.2056,0.2075,0.2109,0.2165,0.2198,0.2312,0.2363,0.2511,0.2541,0.2671,0.2725,0.2855,0.2874,0.2927,0.2939,0.2748,0.2637,0.2851,0.2843,0.2832,0.2822,0.2453,0.2448,0.2445,0.2442,0,0.1896,0.1929,0.1962,0.2008,0.2045,0.2085,0.2152,0.2192,0.2322,0.2389,0.2485,0.255,0.2694,0.2666,0.2752,0.274,0.2722,0.2681,0.297,0.245,0.2408,0.2397,0.2401,0.2412,0.2415,0.2417,0.2419,0.242,0.184,0.1847,0.1892,0.1927,0.1965,0.1987,0.1995,0.2072,0.2134,0.2216,0.2349,0.2383,0.2467,0.2495,0.2454,0.2438,0.2613,0.2487,0.2494,0.2506,0.2417,0.2376,0.236,0.2363,0.2365,0.2367,0.2369,0,0.1756,0.1778,0.1806,0.1837,0.1837,0.1892,0.1941,0.1933,0.196,0.2069,0.2134,0.2025,0.2042,0.2114,0.206,0.2094,0.2043,0.1997,0.1898,0.1932,0.1962,0.184,0.1632,0.163,0.1627,0.1624,0,0,0.1711,0.1704,0.1725,0.1698,0.1719,0.169,0.1697,0.1701,0.1758,0.1757,0.1774,0.1949,0.2062,0.1807,0.1806,0.1702,0.1791,0.1642,0.2243,0.2161,0.2186,0.227,0.2126,0,0,0,0,0]},{"header":{"parameterUnit":"m.s-1","parameterCategory":2,"la1":30.2991,"la2":30.254,"lo1":-89.0895,"lo2":-89.0444,"dy":0.0017,"dx":0.0017,"nx":28,"ny":28,"refTime":"2023-11-11T03:00:00:Z","depth":"2","parameterNumber":3,"parameterNumberName":"V-component_of_CURRENTS"},"data":[0,0,0,0,0,0,0,0,0,0,0,0,0,0,0,0,0,0,0,0,0,0,0,0,0,0,0,0,0,0,0,0,0,0,0,0,0,0,0,0,0,0,0,0,0,0,0,0,0,0,0,0,0,0,0,0,0,0,-0.0215,-0.0215,0,-0.0256,-0.0257,-0.0258,-0.0309,-0.0309,-0.031,-0.031,-0.0436,-0.0439,-0.0441,0,0,0,0,0,0,0,0,0,0,0,0,0,-0.0157,-0.0158,-0.0215,-0.0215,-0.0215,-0.0256,-0.0257,-0.0258,-0.0309,-0.0309,-0.031,-0.0311,-0.0435,-0.0438,-0.0442,0,0,0,0,0,0,0,0,0,0,0,0,0,-0.0192,-0.0159,-0.0215,-0.0243,-0.0246,-0.0256,-0.0257,-0.0258,-0.0309,-0.0309,-0.031,-0.0311,-0.0434,-0.0438,-0.0442,-0.0452,0,0,-0.0455,-0.0457,0,0,0,0,0,0,0,0,-0.019,-0.0194,-0.0239,-0.0241,-0.0245,-0.0276,-0.0283,-0.0326,-0.0308,-0.0288,-0.031,-0.0311,-0.0388,-0.0396,-0.0405,-0.0458,-0.0463,-0.0455,-0.0458,-0.046,-0.0461,0,0,0,0,0,0,0,-0.0187,-0.0192,-0.0234,-0.0239,-0.0242,-0.0247,-0.0253,-0.0291,-0.0336,-0.029,-0.0293,-0.0293,-0.039,-0.04,-0.0408,-0.0465,-0.0455,-0.0459,-0.0462,-0.0463,-0.0572,-0.0572,0,0,0,0,0,0,-0.0177,-0.019,-0.0233,-0.0235,-0.0215,-0.0247,-0.0254,-0.0267,-0.0334,-0.0344,-0.0292,-0.0295,-0.0393,-0.0403,-0.0413,-0.0445,-0.046,-0.0464,-0.0466,-0.0571,-0.0572,-0.0572,0,0,0,0,0,0,-0.0176,-0.0181,-0.0231,-0.021,-0.0217,-0.0247,-0.0261,-0.0268,-0.0283,-0.0334,-0.0346,-0.0301,-0.0394,-0.0407,-0.0459,-0.045,-0.0466,-0.047,-0.0571,-0.0571,-0.0572,-0.0499,0,0,0,0,0,0,-0.0174,-0.018,-0.0188,-0.021,-0.0217,-0.0236,-0.026,-0.0268,-0.028,-0.0284,-0.0346,-0.0358,-0.0395,-0.0453,-0.0463,-0.0456,-0.0473,-0.0571,-0.0571,-0.0572,-0.0501,-0.0497,-0.0493,0,0,0,0,0,-0.0172,-0.0173,-0.0189,-0.0193,-0.0227,-0.0236,-0.024,-0.0266,-0.0279,-0.0284,-0.0334,-0.0357,-0.0464,-0.0457,-0.0469,-0.0462,-0.057,-0.0571,-0.0572,-0.0503,-0.0498,-0.0494,0,0,0,0,0,0,-0.0151,-0.0179,-0.0196,-0.0207,-0.0221,-0.0243,-0.0246,-0.0263,-0.0303,-0.0313,-0.0365,-0.0381,-0.0421,-0.0457,-0.0447,-0.0498,-0.0519,-0.0522,-0.0462,-0.0458,-0.0454,-0.0431,-0.0476,0,0,0,0,0,-0.0149,-0.0159,-0.0185,-0.0191,-0.0198,-0.0223,-0.023,-0.0247,-0.028,-0.0298,-0.0343,-0.0392,-0.0431,-0.0457,-0.05,-0.0529,-0.055,-0.0534,-0.053,-0.0526,-0.0517,-0.0542,-0.0538,-0.0575,-0.0575,-0.0575,0,0,-0.0138,-0.0156,-0.0161,-0.0187,-0.0201,-0.0203,-0.023,-0.0239,-0.0243,-0.0307,-0.0337,-0.0382,-0.0438,-0.047,-0.0491,-0.0501,-0.0528,-0.0527,-0.0523,-0.0516,-0.0542,-0.0538,-0.0535,-0.0575,-0.0575,-0.0575,0,0,-0.0113,-0.0142,-0.0141,-0.015,-0.017,-0.0187,-0.0187,-0.0217,-0.0236,-0.0269,-0.0312,-0.0352,-0.0419,-0.0449,-0.0473,-0.0475,-0.0507,-0.0493,-0.0454,-0.0477,-0.0474,-0.0471,-0.0488,-0.0487,-0.049,-0.049,-0.049,0,-0.0097,-0.0108,-0.0138,-0.0136,-0.0137,-0.0176,-0.0167,-0.0189,-0.0232,-0.0245,-0.0274,-0.0358,-0.0404,-0.043,-0.0433,-0.0463,-0.0483,-0.0461,-0.0469,-0.0467,-0.0465,-0.0484,-0.0484,-0.0487,-0.0487,-0.0487,-0.0488,0,-0.0072,-0.0079,-0.0075,-0.0091,-0.0096,-0.0094,-0.0123,-0.014,-0.0173,-0.0197,-0.0239,-0.0303,-0.0349,-0.0369,-0.0404,-0.0413,-0.0433,-0.0458,-0.0472,-0.0457,-0.0478,-0.0479,-0.0482,-0.0483,-0.0484,-0.0485,0,0,-0.0026,-0.0054,-0.0049,-0.0047,-0.0072,-0.0068,-0.0079,-0.0096,-0.0094,-0.0154,-0.0158,-0.0229,-0.0264,-0.0294,-0.034,-0.0363,-0.0369,-0.0401,-0.0404,-0.0402,-0.0417,-0.0413,-0.0415,-0.0396,-0.0396,-0.0396,-0.0434,0,0.0007,0.0018,-0.0005,0.0017,0.0023,-0.001,-0.001,-0.0031,-0.0064,-0.0082,-0.0147,-0.0176,-0.0235,-0.0253,-0.0286,-0.0349,-0.0371,-0.0356,-0.0446,-0.0449,-0.0434,-0.0415,-0.0389,-0.0419,-0.0435,-0.0435,-0.0436,0,0.0047,0.0048,0.0068,0.0069,0.0071,0.0078,0.0078,0.0071,0.0033,0.0008,-0.0036,-0.0091,-0.0138,-0.0188,-0.0281,-0.027,-0.0334,-0.0385,-0.0388,-0.0408,-0.0447,-0.0441,-0.0421,-0.0439,-0.0438,-0.0438,-0.0438,0,0.0103,0.0106,0.0123,0.0125,0.0115,0.0125,0.0122,0.01,0.0108,0.0068,0.0069,-0.0011,-0.004,-0.0134,-0.0244,-0.0264,-0.0339,-0.0382,-0.0438,-0.0439,-0.0445,-0.0446,-0.0438,-0.0438,-0.0438,-0.0438,-0.0438,0,0.0149,0.0169,0.0152,0.0167,0.0202,0.0179,0.0214,0.0197,0.019,0.0213,0.0123,0.013,-0.0027,-0.0095,-0.0209,-0.0317,-0.0314,-0.042,-0.0444,-0.042,-0.0418,-0.0463,-0.0466,-0.044,-0.0439,-0.0439,-0.0439,0,0.0208,0.0191,0.0219,0.022,0.0227,0.0256,0.0281,0.0305,0.0288,0.0319,0.0312,0.024,0.0151,0.0001,-0.0144,-0.0255,-0.0369,-0.0408,-0.0363,-0.0381,-0.0466,-0.0464,-0.0481,-0.0481,-0.0481,-0.0481,-0.0482,0,0.0234,0.025,0.027,0.0294,0.0297,0.0332,0.0359,0.0355,0.0391,0.0398,0.0425,0.035,0.0316,0.0106,-0.0104,-0.0296,-0.0336,-0.04,-0.0438,-0.0446,-0.0468,-0.0467,-0.0465,-0.0422,-0.0421,-0.0421,-0.0421,0,0.0288,0.0292,0.0312,0.0365,0.04,0.0446,0.0489,0.0536,0.0541,0.0571,0.061,0.0585,0.0385,0.0198,-0.0072,-0.0207,-0.0373,-0.0399,-0.0415,-0.041,-0.0392,-0.0413,-0.0413,-0.0417,-0.0418,-0.0418,-0.0418,-0.0418,0.0333,0.0359,0.0387,0.044,0.0485,0.0557,0.0608,0.0662,0.0732,0.078,0.0754,0.0723,0.0502,0.0167,-0.0069,-0.0333,-0.0335,-0.0433,-0.0433,-0.0434,-0.0416,-0.0398,-0.0421,-0.0421,-0.0422,-0.0422,-0.0422,0,0.0388,0.041,0.0461,0.0523,0.0586,0.0598,0.0691,0.0744,0.0836,0.0871,0.0895,0.0713,0.0497,0.0236,-0.0145,-0.0371,-0.0403,-0.0444,-0.0433,-0.0434,-0.0436,-0.0418,-0.0424,-0.0424,-0.0425,-0.0426,0,0,0.0416,0.047,0.0491,0.0598,0.0645,0.0736,0.0793,0.0868,0.0915,0.0961,0.0945,0.0893,0.0584,0.0316,0.0008,-0.0212,-0.0278,-0.0258,-0.0232,-0.0185,-0.0184,-0.0402,-0.0372,0,0,0,0,0]}],[{"header":{"parameterUnit":"m.s-1","parameterCategory":2,"la1":30.2991,"la2":30.254,"lo1":-89.0895,"lo2":-89.0444,"dy":0.0017,"dx":0.0017,"nx":28,"ny":28,"refTime":"2023-11-11T03:00:00:Z","depth":"4","parameterNumber":2,"parameterNumberName":"U-component_of_CURRENTS"},"data":[0,0,0,0,0,0,0,0,0,0,0,0,0,0,0,0,0,0,0,0,0,0,0,0,0,0,0,0,0,0,0,0,0,0,0,0,0,0,0,0,0,0,0,0,0,0,0,0,0,0,0,0,0,0,0,0,0,0,0.1152,0.1153,0,0.1206,0.1206,0.1206,0.1247,0.1248,0.1248,0.1249,0.1331,0.1333,0.1334,0,0,0,0,0,0,0,0,0,0,0,0,0,0.109,0.109,0.1151,0.1153,0.1154,0.1206,0.1206,0.1207,0.1247,0.1248,0.1249,0.1249,0.1331,0.1333,0.1334,0,0,0,0,0,0,0,0,0,0,0,0,0,0.1123,0.109,0.1151,0.1184,0.1188,0.1206,0.1206,0.1207,0.1246,0.1248,0.1249,0.125,0.133,0.1332,0.1335,0.1324,0,0,0.1341,0.1342,0,0,0,0,0,0,0,0,0.1121,0.1124,0.1178,0.1182,0.1186,0.1225,0.1215,0.1249,0.1246,0.1219,0.1249,0.1251,0.1301,0.1305,0.1306,0.1328,0.1331,0.1341,0.1343,0.1344,0.1344,0,0,0,0,0,0,0,0.1118,0.1122,0.1168,0.1179,0.1184,0.1198,0.1204,0.1221,0.1249,0.1221,0.1226,0.1239,0.1303,0.1303,0.1308,0.1332,0.1341,0.1343,0.1345,0.1345,0.1448,0.145,0,0,0,0,0,0,0.112,0.112,0.1166,0.117,0.1161,0.1199,0.1205,0.1207,0.1248,0.1257,0.1238,0.1241,0.1299,0.1305,0.1311,0.1406,0.1344,0.1346,0.1347,0.1447,0.1449,0.145,0,0,0,0,0,0,0.1118,0.1123,0.1164,0.1151,0.1158,0.1199,0.1201,0.1208,0.1246,0.1262,0.127,0.1274,0.13,0.1308,0.1358,0.1405,0.1347,0.1349,0.1445,0.1447,0.1449,0.1528,0,0,0,0,0,0,0.1116,0.1121,0.1135,0.1151,0.1159,0.1194,0.1201,0.1208,0.1252,0.1257,0.1295,0.1301,0.1302,0.1355,0.136,0.1407,0.135,0.1443,0.1446,0.1449,0.1523,0.1532,0.154,0,0,0,0,0,0.1113,0.1125,0.1135,0.1142,0.1172,0.1195,0.1201,0.123,0.1253,0.1269,0.1302,0.1302,0.1376,0.1358,0.1364,0.1413,0.1442,0.1445,0.1448,0.1519,0.153,0.154,0,0,0,0,0,0,0.111,0.1131,0.1142,0.1162,0.1187,0.1205,0.123,0.125,0.1287,0.1308,0.1319,0.1327,0.138,0.1385,0.1365,0.1448,0.141,0.1414,0.1462,0.1472,0.148,0.1468,0.1352,0,0,0,0,0,0.1114,0.1124,0.115,0.1168,0.1186,0.1214,0.1235,0.1259,0.1289,0.1308,0.1334,0.1366,0.139,0.1425,0.1433,0.1489,0.1481,0.1524,0.1532,0.1539,0.1533,0.1551,0.1561,0.1461,0.1461,0.1461,0,0,0.1122,0.1132,0.1143,0.1168,0.1192,0.1217,0.1229,0.1274,0.1308,0.1311,0.1373,0.1388,0.1405,0.1457,0.1484,0.1479,0.157,0.1544,0.155,0.1539,0.1556,0.1565,0.1574,0.1463,0.1462,0.1462,0,0,0.1133,0.1151,0.1167,0.1191,0.1236,0.1245,0.1267,0.1309,0.1346,0.1398,0.1409,0.1455,0.1499,0.1522,0.1538,0.1599,0.1596,0.1617,0.1673,0.1693,0.1701,0.1708,0.1734,0.1743,0.1642,0.1642,0.1642,0,0.1146,0.1159,0.1178,0.1204,0.1233,0.1262,0.1297,0.1329,0.1384,0.1418,0.143,0.1499,0.1524,0.1583,0.1615,0.1619,0.1631,0.1637,0.1704,0.171,0.1716,0.1741,0.1749,0.1646,0.1646,0.1645,0.1645,0,0.1163,0.1189,0.1205,0.1236,0.1271,0.1304,0.1353,0.1395,0.1441,0.147,0.1543,0.1575,0.1619,0.1645,0.1657,0.1724,0.1719,0.1696,0.1678,0.1731,0.1754,0.1761,0.1652,0.165,0.1649,0.1648,0,0,0.1154,0.1204,0.1215,0.124,0.1296,0.1322,0.1386,0.144,0.1486,0.1545,0.1605,0.1668,0.1693,0.1712,0.1741,0.1779,0.185,0.1775,0.1774,0.18,0.1909,0.1811,0.181,0.1847,0.1848,0.1849,0.1917,0,0.1164,0.1205,0.1235,0.1288,0.1317,0.137,0.1422,0.1484,0.1536,0.1596,0.1652,0.1708,0.1719,0.1763,0.1802,0.1841,0.187,0.1834,0.1853,0.1853,0.1759,0.1814,0.1853,0.1922,0.1924,0.1925,0.1926,0,0.1176,0.1197,0.1253,0.1317,0.134,0.1382,0.147,0.1523,0.1606,0.1657,0.1721,0.1749,0.1842,0.1821,0.1913,0.1897,0.1904,0.1918,0.192,0.1799,0.1768,0.1852,0.1939,0.1938,0.1937,0.1936,0.1935,0,0.1154,0.1215,0.1255,0.128,0.1355,0.141,0.1459,0.155,0.1602,0.1703,0.1747,0.1829,0.1891,0.1922,0.1968,0.1955,0.2037,0.2014,0.192,0.1914,0.1946,0.1937,0.2028,0.2028,0.2028,0.2028,0.2028,0,0.1143,0.1178,0.1254,0.1276,0.134,0.1416,0.1496,0.1558,0.1649,0.1706,0.1784,0.1832,0.1918,0.1969,0.199,0.1993,0.2056,0.1931,0.1922,0.1981,0.1976,0.1953,0.1943,0.203,0.203,0.2029,0.2029,0,0.1115,0.116,0.1207,0.1295,0.1333,0.1389,0.1504,0.1548,0.1654,0.1731,0.1768,0.1865,0.195,0.2003,0.2065,0.2015,0.2026,0.1989,0.2071,0.2065,0.1887,0.1881,0.1908,0.1905,0.1902,0.19,0.1899,0,0.1096,0.1121,0.1214,0.1245,0.1292,0.1381,0.1436,0.1547,0.1591,0.1734,0.1756,0.1864,0.1921,0.1941,0.2003,0.203,0.1989,0.1974,0.1905,0.1884,0.1874,0.1871,0.1869,0.1895,0.1894,0.1893,0.1893,0,0.1057,0.1106,0.1143,0.121,0.1274,0.1328,0.1417,0.1435,0.1561,0.166,0.1713,0.1749,0.183,0.1881,0.1906,0.1914,0.1986,0.1948,0.1952,0.1887,0.1869,0.186,0.186,0.1884,0.1885,0.1886,0.1887,0,0.1033,0.1051,0.1113,0.1164,0.1233,0.1262,0.1311,0.137,0.1429,0.1577,0.1591,0.1714,0.1814,0.1819,0.185,0.1857,0.1825,0.1751,0.1765,0.1775,0.1698,0.1653,0.1599,0,0,0,0,0,0.0999,0.1013,0.1057,0.1105,0.1167,0.1209,0.1292,0.1339,0.1452,0.1455,0.1519,0.1588,0.1642,0.1698,0.1679,0.1793,0.1831,0.1762,0.1751,0.1836,0.1846,0.1767,0,0,0,0,0,0,0.0975,0.1015,0.1034,0.1051,0.107,0.1132,0.1178,0.1248,0.1253,0.137,0.1409,0.1501,0.1577,0.1649,0.1655,0.1673,0.1634,0.1838,0.1834,0.1831,0.184,0.1848,0.177,0,0,0,0,0]},{"header":{"parameterUnit":"m.s-1","parameterCategory":2,"la1":30.2991,"la2":30.254,"lo1":-89.0895,"lo2":-89.0444,"dy":0.0017,"dx":0.0017,"nx":28,"ny":28,"refTime":"2023-11-11T03:00:00:Z","depth":"4","parameterNumber":3,"parameterNumberName":"V-component_of_CURRENTS"},"data":[0,0,0,0,0,0,0,0,0,0,0,0,0,0,0,0,0,0,0,0,0,0,0,0,0,0,0,0,0,0,0,0,0,0,0,0,0,0,0,0,0,0,0,0,0,0,0,0,0,0,0,0,0,0,0,0,0,0,0.0216,0.0216,0,0.0185,0.0185,0.0185,0.0182,0.0182,0.0183,0.0183,0.016,0.0159,0.0159,0,0,0,0,0,0,0,0,0,0,0,0,0,0.0243,0.0243,0.0216,0.0216,0.0215,0.0185,0.0185,0.0185,0.0182,0.0182,0.0183,0.0183,0.016,0.0159,0.0159,0,0,0,0,0,0,0,0,0,0,0,0,0,0.0226,0.0243,0.0216,0.0209,0.0208,0.0185,0.0185,0.0185,0.0182,0.0182,0.0183,0.0183,0.0161,0.0159,0.0158,0.0147,0,0,0.0155,0.0155,0,0,0,0,0,0,0,0,0.0227,0.0225,0.021,0.0209,0.0208,0.0186,0.0186,0.0172,0.0182,0.0194,0.0183,0.0183,0.0168,0.0166,0.0163,0.0146,0.0145,0.0155,0.0154,0.0154,0.0153,0,0,0,0,0,0,0,0.0228,0.0226,0.0206,0.021,0.0208,0.0196,0.0195,0.0183,0.0182,0.0193,0.0192,0.0185,0.0168,0.0164,0.0162,0.0145,0.0155,0.0154,0.0153,0.0153,0.0124,0.0124,0,0,0,0,0,0,0.0229,0.0228,0.0207,0.0205,0.0216,0.0196,0.0194,0.0195,0.0182,0.0179,0.0185,0.0185,0.0166,0.0164,0.0161,0.0148,0.0154,0.0153,0.0152,0.0124,0.0124,0.0124,0,0,0,0,0,0,0.023,0.0228,0.0208,0.0213,0.021,0.0195,0.0196,0.0194,0.0193,0.0175,0.0174,0.0186,0.0166,0.0163,0.0165,0.0147,0.0152,0.0151,0.0124,0.0124,0.0124,0.012,0,0,0,0,0,0,0.0231,0.0229,0.0234,0.0214,0.0209,0.02,0.0195,0.0193,0.0187,0.0187,0.0176,0.0174,0.0166,0.0166,0.0164,0.0146,0.015,0.0124,0.0124,0.0124,0.0121,0.012,0.012,0,0,0,0,0,0.0232,0.0238,0.0235,0.0233,0.0217,0.02,0.0197,0.0188,0.0187,0.0188,0.0187,0.0174,0.0162,0.0166,0.0163,0.0144,0.0125,0.0124,0.0124,0.0121,0.012,0.012,0,0,0,0,0,0,0.0251,0.0238,0.0234,0.0236,0.0221,0.0199,0.0198,0.019,0.0189,0.0192,0.018,0.0178,0.017,0.0162,0.0166,0.0136,0.0138,0.0137,0.0137,0.0136,0.0135,0.0146,0.0149,0,0,0,0,0,0.0257,0.0262,0.0241,0.0243,0.0235,0.0217,0.0211,0.0204,0.0196,0.0195,0.0186,0.0177,0.0164,0.0157,0.0149,0.0136,0.0121,0.012,0.0119,0.0119,0.0126,0.0092,0.0089,0.0123,0.0123,0.0123,0,0,0.0263,0.0257,0.0259,0.0248,0.0235,0.0229,0.0215,0.0206,0.0203,0.0193,0.0192,0.0178,0.0163,0.0149,0.0143,0.0141,0.01,0.0119,0.0118,0.0125,0.0092,0.0088,0.0085,0.0123,0.0123,0.0123,0,0,0.0273,0.0272,0.0277,0.0268,0.0253,0.0241,0.0239,0.0219,0.0214,0.021,0.0198,0.018,0.0165,0.0146,0.0135,0.0128,0.0101,0.0117,0.0118,0.0085,0.0082,0.0079,0.0047,0.0041,0.0113,0.0113,0.0113,0,0.028,0.0286,0.0274,0.0275,0.027,0.0248,0.0248,0.0237,0.0222,0.0218,0.0213,0.0178,0.0162,0.0136,0.0131,0.0124,0.0105,0.0119,0.0084,0.008,0.0077,0.0045,0.0039,0.0113,0.0113,0.0113,0.0113,0,0.0289,0.0297,0.0297,0.0294,0.0288,0.0284,0.0265,0.026,0.0248,0.0234,0.0211,0.0185,0.0165,0.0144,0.0135,0.01,0.0092,0.0089,0.0084,0.0074,0.0041,0.0034,0.0113,0.0113,0.0113,0.0113,0,0,0.0297,0.0303,0.0304,0.0312,0.03,0.0296,0.0291,0.0277,0.0278,0.0246,0.0237,0.0194,0.0175,0.0162,0.0134,0.0097,0.005,0.0084,0.0082,0.0051,-0.0025,-0.0028,-0.0036,0.0038,0.0037,0.0036,-0.0043,0,0.0306,0.0322,0.0319,0.0332,0.0337,0.0322,0.0322,0.0308,0.0294,0.0281,0.0231,0.0216,0.0182,0.017,0.0126,0.0076,0.0035,0.0072,-0.0008,-0.001,-0.0014,-0.0043,0.0033,-0.0048,-0.0049,-0.005,-0.0051,0,0.0314,0.0328,0.0346,0.0361,0.0361,0.0366,0.0366,0.0362,0.0335,0.0324,0.0288,0.0257,0.0198,0.0176,0.0071,0.0096,0.0039,-0.0008,-0.0012,-0.0015,-0.0025,-0.0033,-0.0063,-0.0062,-0.0061,-0.006,-0.006,0,0.0331,0.0346,0.0367,0.037,0.0379,0.0387,0.0389,0.0377,0.0383,0.0353,0.0352,0.0279,0.0248,0.0161,0.0065,0.0067,-0.0049,-0.0058,-0.0119,-0.012,-0.0091,-0.0087,-0.0132,-0.0132,-0.0132,-0.0131,-0.0131,0,0.0342,0.036,0.0381,0.0393,0.042,0.0415,0.0439,0.0431,0.0427,0.0434,0.0377,0.0362,0.0244,0.0165,0.0072,-0.0044,-0.0047,-0.0124,-0.0143,-0.0091,-0.0086,-0.0096,-0.0091,-0.0134,-0.0134,-0.0133,-0.0133,0,0.0356,0.0367,0.0397,0.042,0.0431,0.0451,0.0481,0.0496,0.0488,0.0495,0.0488,0.0419,0.0314,0.0191,0.005,-0.0027,-0.014,-0.0179,-0.0116,-0.0129,-0.0193,-0.0187,-0.0261,-0.0262,-0.0263,-0.0263,-0.0264,0,0.0364,0.0382,0.0423,0.0446,0.0461,0.0494,0.0518,0.0527,0.0545,0.0529,0.0531,0.0443,0.038,0.018,0.0046,-0.014,-0.0163,-0.0222,-0.0213,-0.0196,-0.0207,-0.02,-0.0194,-0.0265,-0.0265,-0.0265,-0.0265,0,0.038,0.0397,0.0423,0.0474,0.0509,0.0548,0.0583,0.0601,0.0606,0.0605,0.0567,0.0463,0.0344,0.0183,0.004,-0.0092,-0.0186,-0.023,-0.0229,-0.0221,-0.0202,-0.021,-0.0203,-0.0268,-0.0267,-0.0267,-0.0267,0,0.0394,0.0414,0.0451,0.0492,0.054,0.0581,0.0601,0.0619,0.0633,0.0616,0.0602,0.0477,0.0405,0.0207,0.0075,-0.0057,-0.0093,-0.0132,-0.0137,-0.0136,-0.0077,-0.0032,-0.0068,0,0,0,0,0,0.0402,0.0421,0.0464,0.0507,0.0557,0.0586,0.0632,0.0647,0.0657,0.0639,0.0624,0.0514,0.0317,0.0232,0.0099,0.0047,-0.0126,-0.0115,-0.0175,-0.0281,-0.0278,-0.0231,0,0,0,0,0,0,0.0404,0.0442,0.046,0.0513,0.0545,0.06,0.0632,0.0642,0.0632,0.0625,0.0525,0.0481,0.0288,0.0394,0.0097,0.0056,-0.0001,-0.0205,-0.0208,-0.0283,-0.028,-0.0278,-0.0228,0,0,0,0,0]}]]